Overview Statistics Trail Chart Weather Telemetry Raw packets
 

This is the latest recevied weather packets stored in our database for station/object KC9DRE. If no packets are shown the sender has not sent any weather packets the latest 10 day(s).

<< 92 93 94 95 96 97 98 >>
Time Temp. Humidity Pressure Rain* Wind** Luminosity Snow
1777204610 13.89° C 88% 1016.6 hPa 0 mm - 32 W/m² -
1777204306 13.89° C 88% 1016.4 hPa 0 mm - 30 W/m² -
1777204003 13.89° C 88% 1016.3 hPa 0 mm - 26 W/m² -
1777203703 13.89° C 89% 1016.1 hPa 0 mm - 23 W/m² -
1777203398 13.89° C 89% 1016.2 hPa 0 mm - 17 W/m² -
1777203095 13.89° C 89% 1016.1 hPa 0 mm - 15 W/m² -
1777202792 13.89° C 90% 1015.8 hPa 0 mm - 11 W/m² -
1777202490 13.89° C 90% 1015.7 hPa 0 mm - 9 W/m² -
1777202185 13.89° C 90% 1015.6 hPa 0 mm - 8 W/m² -
1777201882 14.44° C 90% 1015.4 hPa 0 mm - 6 W/m² -
1777201579 14.44° C 90% 1015.3 hPa 0 mm - 4 W/m² -
1777201274 14.44° C 90% 1015.3 hPa 0 mm - 3 W/m² -
1777200969 14.44° C 90% 1015.3 hPa 0 mm - 2 W/m² -
1777200667 14.44° C 90% 1015.2 hPa 0 mm - 1 W/m² -
1777200366 14.44° C 90% 1015 hPa 0 mm - 0 W/m² -
1777200063 14.44° C 90% 1015.2 hPa 0 mm - 0 W/m² -
1777199757 14.44° C 91% 1015.2 hPa 0 mm - 0 W/m² -
1777199454 14.44° C 91% 1015.2 hPa 0 mm - 0 W/m² -
1777199149 14.44° C 91% 1014.9 hPa 0 mm - 0 W/m² -
1777198849 14.44° C 91% 1014.9 hPa 0 mm - 0 W/m² -
1777198545 14.44° C 91% 1015.1 hPa 0 mm - 0 W/m² -
1777198243 14.44° C 91% 1015 hPa 0 mm - 0 W/m² -
1777197938 14.44° C 91% 1014.9 hPa 0 mm - 0 W/m² -
1777197633 14.44° C 91% 1014.8 hPa 0 mm - 0 W/m² -
1777197329 14.44° C 92% 1015 hPa 0 mm - 0 W/m² -

* Rain latest hour (hover to see other rain measurements)
** Current wind speed in m/s (hover to see current wind gust speed)